Theta_e
304 304 303 303 303 306 308 309 310 310 310 311 311 311 312 312 312 317 320 317 315 315 310 315 321 317 318 323 323 323 324 324 323 323 323 324 324 325 326 325 325 327 329 333 347
304 304 304 308 309 309 309 309 308 309 310 311 311 311 311 311 315 319 315 312 315 320 314 320 319 318 319 321 323 324 324 324 325 325 324 324 324 323 323 323 324 325 328 337 342
304 303 304 308 309 309 310 309 309 309 309 310 311 310 311 312 321 319 313 313 311 310 318 319 320 319 319 319 321 323 325 324 324 324 324 324 324 323 322 322 323 324 326 331 341
303 302 303 306 308 309 309 309 308 308 310 311 311 311 311 316 320 318 313 319 311 316 319 318 319 320 319 319 320 322 323 324 323 323 324 323 323 322 322 322 323 324 325 326 336
302 303 304 306 307 306 306 306 307 312 311 311 311 311 315 320 318 314 313 318 322 319 319 319 319 320 320 319 320 319 320 322 322 323 322 323 322 322 322 323 323 323 324 325 331
302 303 305 306 306 307 307 307 311 311 309 309 310 313 318 319 314 314 313 314 317 320 319 319 319 319 320 321 321 321 321 321 322 322 323 323 323 323 323 323 323 323 322 323 325
302 303 307 306 307 308 309 310 310 310 308 310 310 315 318 315 313 312 314 314 315 318 320 319 318 318 319 319 319 320 319 320 320 320 322 322 323 323 323 324 325 325 323 323 323
303 303 307 307 308 308 308 309 309 309 310 311 313 317 317 312 311 312 312 315 316 316 318 319 319 320 320 319 318 319 320 321 320 319 319 320 321 322 322 322 322 324 325 325 325
302 303 307 308 308 308 309 309 310 309 313 311 317 318 313 311 312 311 312 313 314 316 317 319 318 319 320 320 320 318 320 320 321 322 321 321 321 321 322 322 323 323 323 325 326
302 303 306 307 309 309 310 310 311 312 315 316 315 318 312 311 311 311 311 311 313 314 316 319 321 321 320 320 321 320 320 319 319 320 321 322 322 322 322 322 322 323 325 326 325
301 303 306 307 309 310 311 313 314 317 313 312 312 312 312 311 311 312 311 311 312 312 313 314 318 316 319 319 320 321 319 319 321 321 320 320 322 322 324 323 323 324 325 326 327
301 304 307 307 308 309 312 313 312 311 314 312 312 312 311 311 312 312 311 311 311 311 311 311 311 313 315 317 320 321 321 321 319 319 320 320 320 320 321 323 323 324 325 325 325
300 305 306 307 310 311 314 310 311 311 317 313 312 311 311 310 310 312 311 310 310 310 311 310 310 310 310 314 314 317 319 319 317 318 318 319 319 319 320 320 321 321 322 323 324
300 305 305 307 309 311 312 309 310 311 321 314 313 313 311 311 312 310 310 310 310 310 310 310 309 310 310 310 311 313 314 317 320 322 325 319 321 321 320 320 321 321 321 322 322
299 304 304 307 311 311 308 309 310 314 321 312 312 310 311 312 311 311 309 310 310 310 309 310 309 309 309 309 309 309 311 315 316 325 325 323 321 320 320 321 321 322 322 322 322
300 305 306 308 309 307 307 310 313 322 314 311 311 311 312 312 311 311 311 311 311 310 311 311 311 311 309 309 309 310 310 311 311 317 332 325 321 323 319 319 320 321 322 323 323
301 305 306 307 307 306 308 315 319 311 311 311 310 310 312 312 312 311 311 311 310 310 311 311 311 311 309 311 311 312 312 319 320 324 323 319 323 322 319 319 320 321 322 323 323
304 305 310 308 306 306 311 319 312 310 310 309 310 311 313 313 312 312 312 311 310 311 312 313 313 313 312 311 311 312 315 322 318 320 319 319 321 321 320 319 319 320 321 322 323
308 312 310 307 305 307 315 311 312 309 308 309 310 312 313 313 312 312 311 311 310 311 315 315 313 311 311 312 313 315 314 314 315 316 318 322 321 323 321 319 320 320 320 321 322
308 312 310 305 306 310 313 308 309 308 308 309 311 311 314 314 313 313 311 311 311 311 310 312 316 312 312 312 312 315 316 319 318 319 321 318 320 326 320 319 318 319 319 321 322
310 315 310 306 308 312 310 308 308 307 308 309 310 312 313 314 313 312 311 311 311 310 310 312 316 314 313 317 316 316 316 318 319 320 324 322 323 323 321 322 322 325 325 324 322
311 314 308 307 311 309 309 307 303 308 308 309 310 312 313 313 314 313 313 312 309 310 312 312 315 317 314 315 315 316 319 318 323 319 318 321 320 322 325 322 327 326 324 324 324
311 312 309 308 309 310 308 308 307 307 307 308 310 311 311 312 317 312 312 310 310 311 313 312 315 318 316 320 319 316 316 319 317 322 323 323 323 323 323 321 322 323 322 321 320
309 311 310 310 308 308 308 308 308 307 307 308 309 310 313 314 312 314 313 311 311 311 311 311 316 315 318 317 315 318 315 315 320 328 322 321 323 323 323 322 322 323 321 321 321
309 311 308 311 310 308 309 307 306 307 307 308 311 312 314 315 313 314 313 312 311 312 312 314 318 314 316 317 316 316 316 315 316 316 318 318 318 318 318 321 322 319 320 321 323
308 307 307 309 309 309 306 308 306 306 307 310 311 311 312 317 316 315 312 313 313 312 313 312 317 314 317 317 317 318 318 318 320 319 318 318 319 319 319 319 321 322 322 323 324
305 306 308 308 309 308 308 305 305 305 308 309 309 311 314 314 313 313 312 313 312 313 313 312 316 317 318 316 317 324 320 319 317 315 314 317 316 315 318 318 321 321 321 323 323
Wind_Speed
26 27 27 27 27 26 25 24 24 23 22 21 20 19 17 18 18 16 15 5 5 12 14 12 12 19 20 20 22 18 17 21 31 28 21 21 21 20 16 15 20 21 18 1 12
29 30 29 28 27 26 25 25 25 24 22 20 19 17 16 16 16 16 6 12 13 14 8 13 12 14 17 18 20 21 16 33 25 22 23 23 17 15 19 18 18 18 15 8 11
31 31 31 29 27 27 26 25 23 22 21 20 18 16 15 11 12 11 13 11 8 7 12 14 18 13 21 21 23 24 28 23 22 25 15 22 20 17 16 20 14 19 19 14 12
33 35 35 33 29 27 26 24 22 20 19 18 16 11 9 8 5 8 17 14 6 7 13 15 15 19 21 24 24 28 29 25 26 28 22 17 19 22 22 20 17 18 15 18 18
35 37 37 33 31 27 24 22 19 14 16 16 13 6 4 7 6 9 14 11 4 6 13 14 17 19 24 24 24 29 26 27 27 22 24 22 21 22 22 21 17 19 16 16 8
36 38 35 32 27 25 24 21 13 13 15 15 10 3 7 5 10 13 12 11 9 11 15 14 16 18 21 25 26 24 23 23 26 25 25 21 23 23 26 22 22 19 20 19 18
36 37 33 27 23 24 23 17 14 12 17 11 5 4 3 10 8 14 16 10 11 11 13 17 16 19 16 20 25 25 26 25 23 22 25 23 28 31 25 22 22 24 24 23 22
35 35 30 23 20 23 23 15 13 9 19 9 7 6 5 8 8 12 15 14 4 10 13 14 16 17 20 21 26 24 23 24 25 27 26 21 36 24 24 30 30 28 21 21 27
36 34 26 21 18 22 20 16 13 11 15 7 6 6 6 8 10 13 14 14 9 7 10 12 13 17 18 20 20 20 25 29 28 26 26 30 36 24 23 18 17 23 25 26 23
37 31 22 18 16 21 21 16 11 8 7 7 11 8 13 15 13 14 14 18 16 16 14 16 14 16 17 15 19 22 25 26 27 24 25 25 25 22 24 15 15 14 16 18 23
38 30 19 17 14 19 23 5 11 5 15 9 8 5 9 19 12 12 11 19 13 16 19 18 13 14 24 16 29 27 29 32 26 21 17 23 21 20 21 22 17 15 16 14 14
38 25 18 19 11 12 11 12 12 8 8 2 2 4 9 17 18 19 13 16 18 19 17 17 20 22 20 17 17 21 25 27 25 25 24 24 23 23 20 22 21 18 17 19 19
37 19 19 19 5 6 6 13 12 5 7 6 3 5 13 21 21 14 16 17 19 18 19 18 22 25 19 17 17 22 25 23 26 26 27 28 29 28 25 26 27 26 25 23 24
37 17 20 20 4 13 7 16 14 2 5 5 3 6 14 19 7 17 10 16 19 22 22 18 17 13 17 18 21 18 19 23 22 20 18 25 22 25 25 27 29 28 28 25 25
36 12 17 12 9 11 16 15 9 5 4 8 8 6 19 14 11 18 16 16 20 20 18 21 21 20 17 18 19 22 22 20 17 20 22 28 17 20 24 23 23 20 21 29 28
34 8 15 7 10 17 18 13 4 7 6 8 9 16 18 12 17 17 17 13 16 15 18 17 10 16 17 20 16 18 20 21 20 15 12 22 22 22 22 26 21 22 23 23 21
26 4 11 8 15 20 17 9 6 7 13 10 16 20 17 14 16 15 19 15 9 12 17 22 12 18 6 13 16 10 15 11 11 14 16 19 22 22 21 24 23 17 17 20 18
14 3 9 12 20 17 13 10 5 11 11 14 16 19 10 17 16 16 19 11 9 16 16 12 18 5 2 17 20 20 9 7 11 14 14 9 13 22 28 26 22 20 17 12 14
8 3 6 18 16 13 10 5 5 9 13 14 17 9 12 17 15 18 16 7 9 13 9 14 13 28 20 12 2 12 17 16 18 21 15 9 12 23 23 8 8 9 13 18 17
11 6 9 21 12 14 7 2 5 6 11 10 12 7 19 18 16 18 11 7 13 7 12 10 16 15 10 18 12 9 17 8 8 10 16 13 20 15 18 17 14 8 16 13 14
7 5 11 18 13 4 5 5 4 7 9 7 11 15 16 16 18 17 6 11 9 15 16 16 6 12 22 6 14 8 11 11 11 8 4 10 4 15 6 8 8 7 12 6 3
7 4 12 18 3 3 6 4 1 5 5 6 7 8 10 17 10 9 11 11 12 15 16 10 6 14 24 10 3 4 7 5 5 10 13 16 13 6 19 7 15 8 8 7 9
7 4 5 16 5 6 5 4 3 9 9 5 7 5 12 10 6 9 10 12 13 12 5 7 4 10 11 1 7 14 7 5 6 10 17 13 10 10 22 3 2 6 6 1 5
5 4 1 2 3 6 8 4 8 5 7 5 11 10 7 13 11 11 22 8 19 18 13 8 5 10 10 20 22 18 19 14 10 4 13 15 16 28 10 18 23 23 9 10 11
3 3 3 5 7 7 5 5 10 9 4 11 6 7 13 4 17 14 20 20 14 6 3 2 8 16 21 22 21 22 21 15 15 17 16 21 24 20 15 6 19 16 14 12 12
6 5 1 9 5 8 5 5 9 9 9 9 11 15 15 12 10 14 17 18 8 9 9 3 6 19 22 17 11 14 15 16 13 14 20 23 29 26 24 22 23 17 17 17 14
4 3 5 3 5 7 4 7 10 12 9 9 13 16 18 15 19 23 21 19 16 15 15 3 4 6 9 20 18 6 1 4 10 18 20 16 22 22 23 21 21 16 11 12 12
Wind_Direction
4 360 357 352 344 338 334 331 329 326 322 318 313 311 307 307 311 289 259 300 279 267 286 253 230 223 231 232 227 224 246 244 243 247 250 252 256 255 246 253 253 252 248 193 120
1 357 351 344 340 335 333 330 327 325 321 317 312 307 305 308 302 273 10 304 287 272 235 225 219 214 221 227 226 224 229 240 249 256 259 264 244 257 263 231 236 250 237 122 171
359 354 347 342 338 335 333 330 325 322 322 317 310 305 304 318 274 73 355 337 308 215 243 279 269 223 234 232 223 223 239 255 252 257 276 286 269 253 239 249 231 237 228 190 208
358 354 349 344 340 337 334 331 331 333 329 328 325 325 314 285 337 39 4 2 340 228 264 260 250 248 236 240 234 238 242 246 258 274 274 249 275 267 262 244 255 256 249 227 187
359 355 353 349 344 347 349 347 350 355 348 345 346 343 302 232 34 0 348 338 305 261 256 258 254 247 242 251 242 241 250 253 258 261 264 270 253 256 260 260 256 261 256 249 219
359 356 356 353 354 355 351 354 6 359 1 347 341 30 266 259 353 339 318 313 282 277 276 266 265 266 280 267 260 271 266 264 252 255 265 248 259 252 250 256 262 254 246 242 230
359 356 356 358 2 3 360 12 5 6 358 8 52 328 278 28 342 344 346 315 296 282 286 281 274 282 273 261 257 266 267 265 258 255 259 261 260 249 254 252 244 235 238 241 237
359 355 355 358 5 3 358 9 352 3 13 32 21 293 54 19 336 358 1 343 328 296 275 282 285 279 273 278 280 275 262 257 246 243 240 233 254 247 238 228 235 240 232 232 228
359 354 354 354 0 2 354 350 359 336 347 355 302 272 47 334 340 325 342 335 322 291 280 277 260 259 263 253 256 251 257 257 257 241 245 225 249 249 258 238 245 224 234 235 236
357 353 350 350 349 355 343 317 316 293 297 265 263 270 31 353 347 308 350 321 304 305 268 220 240 248 240 244 259 261 247 244 254 254 257 238 245 262 249 265 236 235 242 240 228
356 353 351 349 329 356 348 309 337 177 357 25 17 46 353 350 321 294 352 321 318 305 290 295 241 263 286 316 330 294 260 271 280 287 250 262 249 241 243 239 224 223 239 247 245
356 357 356 348 335 341 347 27 25 317 303 76 159 251 335 342 323 322 341 317 322 304 305 280 268 268 264 287 298 299 291 283 269 269 272 270 266 264 265 268 269 252 235 246 247
356 357 353 349 328 322 8 14 341 323 255 128 338 306 334 329 319 347 331 333 317 306 310 308 301 305 294 253 254 285 288 287 281 277 259 255 252 249 251 255 254 252 249 245 248
354 353 349 346 275 337 30 345 342 306 263 55 24 73 327 328 347 337 338 324 301 307 306 295 288 293 303 287 293 259 255 271 313 298 280 251 259 250 236 240 242 242 245 240 234
351 337 352 359 322 354 333 331 332 231 304 13 0 308 335 331 312 345 337 322 301 302 299 293 297 288 292 292 299 288 275 273 282 262 271 265 256 250 255 255 242 246 241 228 229
348 334 6 354 307 335 322 318 224 234 28 343 341 342 332 351 342 349 330 305 308 297 282 281 296 288 280 280 276 280 278 276 269 260 252 248 254 258 245 238 246 244 243 243 235
345 300 0 337 335 327 325 268 255 16 347 356 334 331 317 346 347 336 331 329 350 328 333 322 353 334 245 323 291 305 261 256 266 250 256 252 231 243 256 257 252 244 247 228 235
349 280 317 337 331 322 303 268 335 9 1 333 325 306 318 347 348 329 335 334 3 348 328 333 318 182 184 289 301 307 209 265 255 253 266 272 272 239 241 243 254 251 245 253 243
358 292 319 342 332 315 279 26 5 358 340 328 315 331 343 339 342 341 342 342 358 17 354 318 305 321 292 305 84 308 297 289 284 277 267 245 288 282 254 253 213 246 260 242 242
338 286 20 341 324 290 275 51 351 357 333 326 323 340 330 342 339 341 328 11 344 16 346 300 301 299 323 319 271 256 294 287 229 258 253 260 235 220 231 211 204 246 217 233 224
306 272 7 342 305 283 22 32 329 359 341 329 331 315 330 344 335 316 304 327 16 337 325 307 257 285 298 259 295 324 261 207 246 263 270 277 353 14 106 308 90 51 39 28 212
291 299 0 343 287 28 21 3 336 320 325 308 293 301 326 337 322 322 296 346 351 325 324 317 290 292 296 300 344 182 294 284 280 264 286 295 262 308 320 87 98 320 93 64 0
323 309 35 338 17 6 18 285 288 307 323 308 298 317 325 330 309 295 302 304 321 319 300 334 260 307 305 166 263 330 293 236 193 263 266 280 285 159 217 94 319 187 223 218 317
302 319 109 158 111 331 351 12 332 324 316 289 290 293 320 313 305 284 292 326 321 300 295 282 240 239 269 293 310 300 305 288 228 259 288 278 266 277 60 338 320 302 312 319 305
352 51 16 312 357 337 301 304 327 337 304 297 277 270 334 312 314 281 328 321 312 351 282 286 273 277 279 281 284 285 287 291 284 271 276 291 287 287 306 231 227 260 300 299 302
321 337 316 275 296 291 159 337 318 329 309 292 304 319 312 297 273 293 305 299 286 304 336 315 276 305 296 295 275 270 295 316 313 336 319 313 294 299 331 322 304 309 312 304 284
355 219 274 266 294 288 14 323 311 312 296 275 302 310 310 323 313 298 286 277 262 266 279 254 278 306 293 326 315 247 74 4 321 310 304 288 298 318 308 312 313 306 304 291 296